User: anonymous   Login
Location: South Tamworth Observatory
(43.8246°N, 71.3026°W)
Time: 11:59:54
(UTC-04:00)
Language:

Cosmos 1844 - Orbit

View from above orbital plane
View from above orbital plane
View from above satellite
View from above satellite

Ground track
Ground track

The orbit data is extracted from the following two-line orbital elements,

1 17973U 87041A   16207.52443031 -.00000247  00000-0 -10361-3 0  9994
2 17973  70.8972 242.0181 0033623 257.1001 102.6364 14.14030760506967
Epoch (UTC): 25 July 2016 12:35:10
Eccentricity: 0.0033623
inclination: 70.8972°
perigee height: 821 km
apogee height: 870 km
right ascension of ascending node: 242.0181°
argument of perigee: 257.1001°
revolutions per day: 14.14030760
mean anomaly at epoch: 102.6364°
orbit number at epoch: 50696

The dashed part of the orbit path shows where the satellite is in the earth's shadow,  

DLR